TimeEST,TemperatureF,Dew PointF,Humidity,Sea Level PressureIn,VisibilityMPH,Wind Direction,Wind SpeedMPH,Gust SpeedMPH,PrecipitationIn,Events,Conditions,WindDirDegrees,DateUTC
12:15 AM,35.8,34.5,95,30.40,5.0,Calm,Calm,-,N/A,,Clear,0,2013-01-09 05:15:00
12:35 AM,35.4,34.2,95,30.39,5.0,Calm,Calm,-,N/A,,Clear,0,2013-01-09 05:35:00
12:55 AM,35.4,34.2,95,30.40,7.0,Calm,Calm,-,N/A,,Clear,0,2013-01-09 05:55:00
1:15 AM,34.9,33.4,94,30.39,5.0,Calm,Calm,-,N/A,,Clear,0,2013-01-09 06:15:00
1:35 AM,34.3,33.3,96,30.38,5.0,Calm,Calm,-,N/A,,Clear,0,2013-01-09 06:35:00
1:55 AM,34.7,33.4,95,30.38,4.0,Calm,Calm,-,N/A,,Clear,0,2013-01-09 06:55:00
2:15 AM,33.8,32.5,95,30.38,7.0,Calm,Calm,-,N/A,,Clear,0,2013-01-09 07:15:00
2:35 AM,34.5,33.1,94,30.38,4.0,Calm,Calm,-,N/A,,Clear,0,2013-01-09 07:35:00
2:55 AM,34.2,32.9,95,30.37,5.0,Calm,Calm,-,N/A,,Clear,0,2013-01-09 07:55:00
3:15 AM,35.1,33.8,95,30.39,7.0,Calm,Calm,-,N/A,,Clear,0,2013-01-09 08:15:00
3:35 AM,33.8,32.5,95,30.40,10.0,West,5.8,-,N/A,,Scattered Clouds,280,2013-01-09 08:35:00
3:55 AM,34.3,33.1,95,30.40,10.0,Calm,Calm,-,N/A,,Scattered Clouds,0,2013-01-09 08:55:00
4:15 AM,35.1,33.8,95,30.40,10.0,WNW,4.6,-,N/A,,Clear,300,2013-01-09 09:15:00
4:35 AM,35.8,34.5,95,30.40,10.0,Calm,Calm,-,N/A,,Clear,0,2013-01-09 09:35:00
4:55 AM,35.6,34.2,94,30.40,7.0,Calm,Calm,-,N/A,,Scattered Clouds,0,2013-01-09 09:55:00
5:15 AM,34.7,33.4,95,30.39,5.0,Calm,Calm,-,N/A,,Scattered Clouds,0,2013-01-09 10:15:00
5:35 AM,35.1,33.8,95,30.39,3.0,Calm,Calm,-,N/A,,Clear,0,2013-01-09 10:35:00
5:55 AM,34.2,32.9,95,30.39,3.0,Calm,Calm,-,N/A,,Clear,0,2013-01-09 10:55:00
6:15 AM,34.0,32.7,95,30.39,3.0,Calm,Calm,-,N/A,,Clear,0,2013-01-09 11:15:00
6:35 AM,34.0,32.9,96,30.40,4.0,Calm,Calm,-,N/A,,Clear,0,2013-01-09 11:35:00
7:15 AM,33.4,32.4,96,30.42,5.0,Calm,Calm,-,N/A,,Clear,0,2013-01-09 12:15:00
7:35 AM,33.4,32.4,96,30.43,3.0,Calm,Calm,-,N/A,,Clear,0,2013-01-09 12:35:00
7:55 AM,33.6,32.5,96,30.43,5.0,Calm,Calm,-,N/A,,Clear,0,2013-01-09 12:55:00
8:15 AM,35.1,34.0,96,30.44,7.0,Calm,Calm,-,N/A,,Clear,0,2013-01-09 13:15:00
8:35 AM,38.1,36.9,95,30.44,10.0,Calm,Calm,-,N/A,,Clear,0,2013-01-09 13:35:00
8:55 AM,40.6,38.8,93,30.44,10.0,Calm,Calm,-,N/A,,Clear,0,2013-01-09 13:55:00
9:15 AM,43.5,39.0,84,30.44,10.0,Calm,Calm,-,N/A,,Clear,0,2013-01-09 14:15:00
9:35 AM,46.8,39.9,77,30.44,10.0,Calm,Calm,-,N/A,,Clear,0,2013-01-09 14:35:00
10:15 AM,51.3,42.4,72,30.43,10.0,Calm,Calm,-,N/A,,Clear,0,2013-01-09 15:15:00
10:35 AM,54.3,44.1,68,30.43,10.0,Calm,Calm,-,N/A,,Clear,0,2013-01-09 15:35:00
10:55 AM,56.7,45.3,66,30.42,10.0,SSE,3.5,-,N/A,,Clear,160,2013-01-09 15:55:00
11:15 AM,59.4,46.4,62,30.41,10.0,Calm,Calm,-,N/A,,Clear,0,2013-01-09 16:15:00
11:35 AM,61.7,47.7,60,30.41,10.0,Calm,Calm,-,N/A,,Clear,0,2013-01-09 16:35:00
11:55 AM,63.7,49.1,59,30.39,10.0,WNW,5.8,-,N/A,,Clear,290,2013-01-09 16:55:00
12:15 PM,65.3,50.0,58,30.39,10.0,WNW,5.8,-,N/A,,Clear,300,2013-01-09 17:15:00
12:35 PM,66.9,50.0,54,30.38,10.0,WNW,4.6,-,N/A,,Clear,300,2013-01-09 17:35:00
12:55 PM,67.6,49.6,52,30.37,10.0,West,4.6,-,N/A,,Clear,260,2013-01-09 17:55:00
1:15 PM,68.2,49.6,51,30.36,10.0,WSW,3.5,-,N/A,,Clear,250,2013-01-09 18:15:00
1:35 PM,69.6,48.9,48,30.36,10.0,West,4.6,-,N/A,,Clear,270,2013-01-09 18:35:00
1:55 PM,70.0,48.2,46,30.36,10.0,West,8.1,-,N/A,,Clear,260,2013-01-09 18:55:00
2:15 PM,70.7,48.0,44,30.35,10.0,West,11.5,-,N/A,,Clear,260,2013-01-09 19:15:00
2:35 PM,70.7,47.7,44,30.35,10.0,WSW,5.8,-,N/A,,Clear,240,2013-01-09 19:35:00
2:55 PM,69.8,48.0,46,30.36,10.0,SW,8.1,-,N/A,,Clear,230,2013-01-09 19:55:00
3:15 PM,68.5,48.2,48,30.36,10.0,SW,4.6,-,N/A,,Clear,230,2013-01-09 20:15:00
3:35 PM,68.0,48.7,50,30.36,10.0,Calm,Calm,-,N/A,,Clear,0,2013-01-09 20:35:00
3:55 PM,68.4,49.1,50,30.35,10.0,WSW,3.5,-,N/A,,Clear,240,2013-01-09 20:55:00
4:15 PM,67.6,48.6,50,30.36,10.0,WSW,3.5,-,N/A,,Clear,240,2013-01-09 21:15:00
4:35 PM,66.6,48.7,53,30.37,10.0,Calm,Calm,-,N/A,,Clear,0,2013-01-09 21:35:00
4:55 PM,65.7,48.7,54,30.37,10.0,SW,3.5,-,N/A,,Clear,230,2013-01-09 21:55:00
5:15 PM,64.2,49.1,58,30.36,10.0,Calm,Calm,-,N/A,,Clear,0,2013-01-09 22:15:00
5:35 PM,61.2,49.8,66,30.37,10.0,SSW,3.5,-,N/A,,Clear,200,2013-01-09 22:35:00
5:55 PM,59.2,49.6,71,30.38,10.0,SSW,3.5,-,N/A,,Clear,210,2013-01-09 22:55:00
6:15 PM,56.3,49.5,78,30.37,10.0,Calm,Calm,-,N/A,,Clear,0,2013-01-09 23:15:00
6:35 PM,55.0,48.7,79,30.36,10.0,Calm,Calm,-,N/A,,Clear,0,2013-01-09 23:35:00
6:55 PM,53.4,48.7,84,30.36,10.0,South,3.5,-,N/A,,Clear,170,2013-01-09 23:55:00
7:15 PM,53.6,48.7,84,30.34,10.0,South,6.9,-,N/A,,Clear,180,2013-01-10 00:15:00
7:35 PM,58.1,49.5,73,30.36,10.0,Calm,Calm,-,N/A,,Clear,0,2013-01-10 00:35:00
7:55 PM,58.5,48.7,70,30.37,10.0,Calm,Calm,-,N/A,,Clear,0,2013-01-10 00:55:00
8:15 PM,54.5,48.4,80,30.36,10.0,Calm,Calm,-,N/A,,Clear,0,2013-01-10 01:15:00
8:35 PM,52.3,48.0,85,30.37,10.0,Calm,Calm,-,N/A,,Clear,0,2013-01-10 01:35:00
9:15 PM,49.6,46.6,89,30.37,10.0,Calm,Calm,-,N/A,,Clear,0,2013-01-10 02:15:00
9:35 PM,48.2,45.7,91,30.38,10.0,Calm,Calm,-,N/A,,Clear,0,2013-01-10 02:35:00
9:55 PM,48.0,45.5,91,30.39,10.0,Calm,Calm,-,N/A,,Clear,0,2013-01-10 02:55:00
10:15 PM,46.6,44.4,92,30.39,10.0,Calm,Calm,-,N/A,,Clear,0,2013-01-10 03:15:00
10:35 PM,46.6,44.4,92,30.40,10.0,Calm,Calm,-,N/A,,Clear,0,2013-01-10 03:35:00
11:15 PM,45.3,43.5,93,30.40,10.0,Calm,Calm,-,N/A,,Clear,0,2013-01-10 04:15:00
11:35 PM,44.1,42.3,93,30.40,10.0,Calm,Calm,-,N/A,,Clear,0,2013-01-10 04:35:00
11:55 PM,44.1,42.1,93,30.40,10.0,Calm,Calm,-,N/A,,Clear,0,2013-01-10 04:55:00